Location: Baia Mare
(47.6567°N, 23.5850°E)
Time: 08:13:16
(UTC+03:00)

ISS - Pass Details

Date: 24 March 2018
Orbit: 402 x 408 km, 51.6° (Epoch: 20 July)

Event Time Altitude Azimuth Distance (km) Brightness Sun altitude
Rises 20:34:46 0° 224° (SW) 2,344 0.3 -18.8°
Reaches altitude 10° 20:36:55 10° 217° (SW) 1,486 -0.8 -19.2°
Enters shadow 20:38:34 24° 200° (SSW) 901 -2.2 -19.4°
